Location: Aracaju
(10.9167°S, 37.0667°W)
Time: 12:54:56
(UTC-02:00)

ISS - Visible Passes

Search period start: 18 December 2017 00:00
Search period end: 28 December 2017 00:00
Orbit: 402 x 406 km, 51.6° (Epoch: 19 December)

Date Brightness Start Highest point End Pass type
(mag) Time Alt. Az. Time Alt. Az. Time Alt. Az.
18 Dec -1.6 20:24:51 10° NW 20:25:47 18° NW 20:25:47 18° NW visible
19 Dec -3.3 19:32:51 10° NNW 19:35:54 37° NE 19:38:57 10° SE visible
20 Dec -0.8 20:17:39 10° W 20:19:59 18° SW 20:22:20 10° S visible
21 Dec -2.6 19:24:33 10° NW 19:27:42 47° SW 19:30:53 10° SSE visible
22 Dec -1.5 05:17:42 10° S 05:20:37 29° SE 05:23:30 10° ENE visible
23 Dec -0.3 04:26:53 10° SSE 04:28:16 12° SE 04:29:39 10° ESE visible
23 Dec -0.3 19:17:50 10° W 19:19:33 13° SW 19:21:16 10° SSW visible
24 Dec -3.9 05:09:08 10° SW 05:12:23 64° NW 05:15:36 10° NNE visible
25 Dec -2.5 04:20:11 40° ESE 04:20:11 40° ESE 04:23:12 10° NE visible
